Location: Alpha Ridge Park
(39.3209°N, 76.9128°W)
Time: 07:53:22
(UTC-04:00)

Explorer 7 - All Passes

Search period start: 23 May 2019 00:00
Search period end: 02 June 2019 00:00
Orbit: 485 x 680 km, 50.3° (Epoch: 22 May)

Date Brightness Start Highest point End Pass type
(mag) Time Alt. Az. Time Alt. Az. Time Alt. Az.
23 May - 01:20:05 10° NW 01:23:48 24° NNE 01:27:20 10° ENE visible
23 May - 03:00:37 10° NW 03:05:02 68° NNE 03:09:07 10° ESE visible
23 May - 04:42:10 10° W 04:45:08 19° SW 04:47:57 10° S visible
23 May - 18:43:35 10° SE 18:44:58 11° SE 18:46:21 10° ESE daylight
23 May - 20:20:03 10° SW 20:24:55 65° SE 20:29:40 10° ENE daylight
23 May - 22:01:22 10° W 22:05:48 34° NNW 22:10:06 10° NE visible
23 May - 23:43:54 10° NW 23:47:27 20° N 23:50:52 10° NE visible
24 May - 01:25:10 10° NW 01:29:10 29° NNE 01:32:56 10° E visible
24 May - 03:05:43 10° WNW 03:10:07 76° SW 03:14:13 10° SE visible
24 May - 04:49:06 10° WSW 04:49:55 10° SW 04:50:43 10° SW night (unlit)
24 May - 18:46:22 10° S 18:49:47 19° SE 18:53:10 10° E daylight
24 May - 20:25:04 10° SW 20:29:59 84° NW 20:34:48 10° NE daylight
24 May - 22:06:57 10° WNW 22:11:07 28° NNW 22:15:10 10° NE visible
24 May - 23:49:19 10° NW 23:52:53 21° N 23:56:19 10° NE visible
25 May - 01:30:13 10° NW 01:34:28 37° NNE 01:38:28 10° E visible
25 May - 03:10:55 10° WNW 03:15:08 45° SW 03:19:04 10° SSE visible
25 May - 18:50:23 10° SSW 18:54:39 30° SE 18:58:54 10° ENE daylight
25 May - 20:30:17 10° WSW 20:35:07 57° NNW 20:39:51 10° NE daylight
25 May - 22:12:35 10° WNW 22:16:30 24° NNW 22:20:17 10° NE visible
25 May - 23:54:35 10° NW 23:58:18 23° N 00:01:52 10° ENE visible
26 May - 01:35:14 10° NW 01:39:43 53° NNE 01:43:52 10° ESE visible
26 May - 03:16:20 10° WNW 03:20:03 27° SW 03:23:33 10° S visible
26 May - 18:54:53 10° SSW 18:59:36 48° SE 19:04:17 10° ENE daylight
26 May - 20:35:41 10° W 20:40:20 42° NNW 20:44:53 10° NE daylight
26 May - 22:18:10 10° WNW 22:21:54 22° N 22:25:32 10° NE visible
26 May - 23:59:44 10° NW 00:03:42 26° NNE 00:07:28 10° ENE visible
27 May - 01:40:17 10° NW 01:44:51 80° NNE 01:49:07 10° ESE visible
27 May - 03:22:10 10° W 03:24:53 16° SW 03:27:30 10° SSW night (unlit)
27 May - 17:22:15 10° SSE 17:24:36 13° SE 17:26:58 10° E daylight
27 May - 18:59:43 10° SW 19:04:37 75° SE 19:09:29 10° ENE daylight
27 May - 20:41:13 10° W 20:45:37 32° NNW 20:49:56 10° NE daylight
27 May - 22:23:40 10° NW 22:27:20 21° N 22:30:53 10° NE visible
28 May - 00:04:49 10° NW 00:09:02 32° NNE 00:13:02 10° E visible
28 May - 01:45:25 10° WNW 01:49:55 65° SW 01:54:08 10° SE visible
28 May - 17:25:40 10° S 17:29:26 22° SE 17:33:12 10° E daylight
28 May - 19:04:48 10° WSW 19:09:43 74° NNW 19:14:35 10° NE daylight
28 May - 20:46:49 10° WNW 20:50:57 27° NNW 20:55:01 10° NE visible
28 May - 22:29:01 10° NW 22:32:46 22° N 22:36:23 10° ENE visible
29 May - 00:09:51 10° NW 00:14:19 42° NNE 00:18:32 10° E visible
29 May - 01:50:41 10° WNW 01:54:54 39° SW 01:58:52 10° SSE visible
29 May - 17:29:53 10° SSW 17:34:19 35° SE 17:38:47 10° ENE daylight
29 May - 19:10:05 10° WSW 19:14:53 51° NNW 19:19:38 10° NE daylight
29 May - 20:52:25 10° WNW 20:56:20 23° N 21:00:11 10° NE visible
29 May - 22:34:15 10° NW 22:38:10 24° N 22:41:57 10° ENE visible
30 May - 00:14:53 10° NW 00:19:32 61° NNE 00:23:53 10° ESE visible
30 May - 01:56:11 10° WNW 01:59:47 24° SW 02:03:13 10° S visible
30 May - 17:34:30 10° SW 17:39:17 56° SE 17:44:06 10° ENE daylight
30 May - 19:15:31 10° W 19:20:07 38° NNW 19:24:40 10° NE daylight
30 May - 20:57:58 10° NW 21:01:46 22° N 21:05:28 10° NE visible
30 May - 22:39:23 10° NW 22:43:33 28° NNE 22:47:33 10° ENE visible
31 May - 00:19:58 10° NW 00:24:39 89° SW 00:29:03 10° SE visible
31 May - 02:02:13 10° W 02:04:36 14° SW 02:06:55 10° SSW visible
31 May - 16:01:20 10° SSE 16:04:15 16° SE 16:07:12 10° E daylight
31 May - 17:39:26 10° SW 17:44:19 86° SE 17:49:15 10° NE daylight
31 May - 19:21:04 10° W 19:25:25 30° NNW 19:29:43 10° NE daylight
31 May - 21:03:25 10° NW 21:07:12 22° N 21:10:53 10° NE visible
31 May - 22:44:27 10° NW 22:48:52 36° NNE 22:53:05 10° E visible
01 Jun - 00:25:07 10° WNW 00:29:41 56° SW 00:33:59 10° SE visible
01 Jun - 16:05:06 10° S 16:09:04 26° SE 16:13:07 10° ENE daylight
01 Jun - 17:44:34 10° WSW 17:49:26 65° NNW 17:54:20 10° NE daylight
01 Jun - 19:26:40 10° WNW 19:30:47 26° NNW 19:34:50 10° NE daylight
01 Jun - 21:08:44 10° NW 21:12:37 23° N 21:16:24 10° ENE visible
01 Jun - 22:49:29 10° NW 22:54:08 48° NNE 22:58:32 10° ESE visible
